Regional Weather Roundup
Issued by NWS

Home | Current Version | Previous Version | Text Only | Print | Product List | Glossary Off
Versions: 1 2 3 4 5 6 7 8 9 10 11 12 13 14 15 16 17 18 19 20 21 22 23 24 25 26 27 28 29 30 31 32 33 34 35 36 37 38 39 40 41 42 43 44 45 46 47 48 49 50

015
ASUS45 KCYS 242110
RWRWY

WYOMING REGIONAL WEATHER ROUNDUP
NATIONAL WEATHER SERVICE CHEYENNE WY
200 PM MST SAT FEB 24 2018

NOTE:  "FAIR" INDICATES FEW OR NO CLOUDS BELOW 12,000 FEET
WITH NO SIGNIFICANT WEATHER AND/OR OBSTRUCTIONS TO VISIBILITY.

WYZ001-242200-
YELLOWSTONE NATIONAL PARK

CITY           SKY/WX    TMP DP  RH WIND       PRES   REMARKS
LK YELLOWSTONE   N/A     12   2  64 VRB5      29.72F WCI   4
W YELLOWSTONE  NOT AVBL

$$
WYZ002>013-054>058-071-098>099-242200-
NORTHERN WYOMING

CITY           SKY/WX    TMP DP  RH WIND       PRES   REMARKS
JACKSON        CLOUDY    19   8  62 S15       29.79F WCI   5
CODY           FAIR      27   4  37 SW20G35   29.69  WCI  13
GREYBULL       FAIR      22  10  60 CALM      29.76F
WORLAND        FAIR      28   9  44 SE12      29.73F WCI  18
SHERIDAN       FAIR      27  10  49 S6        29.68F WCI  20
BUFFALO        FAIR      25   8  48 S9        29.66F WCI  15
GILLETTE       FAIR      25  10  53 SW13      29.68F WCI  14
HULETT         FAIR      27  12  54 MISG      29.68F
NEWCASTLE      FAIR      25  10  54 W12G21    29.73S WCI  14

$$
WYZ014>020-022>026-101>103-242200-
CENTRAL WYOMING

CITY           SKY/WX    TMP DP  RH WIND       PRES   REMARKS
BIG PINEY      FAIR      18   2  49 E6        29.80F WCI  10
PINEDALE       FAIR      18   3  53 E3        29.81F
DUBOIS           N/A    N/A N/A N/A MISG        N/A
LANDER         FAIR      26   6  42 NE7       29.72F WCI  18
RIVERTON       FAIR      27   4  37 NW22G30   29.71F WCI  13
CASPER         FAIR      21  11  65 SW20      29.72F WCI   6
DOUGLAS        FAIR      25  11  55 W20       29.71F WCI  11

$$
WYZ021-027>030-104>119-242200-
SOUTHERN WYOMING

CITY           SKY/WX    TMP DP  RH WIND       PRES   REMARKS
EVANSTON       PTSUNNY   17   8  67 SW21      29.84F WCI   0
FORT BRIDGER   MOCLDY    19   9  65 SW18G25   29.88F WCI   3
ROCK SPRINGS   PTSUNNY   18   7  62 W20G28    29.85F WCI   2
DIXON          MOCLDY    20   5  53 SW17G25   29.91F WCI   5
RAWLINS        CLOUDY    17   9  70 W24G38    29.79F HAZE    WCI  -1
SARATOGA       FAIR      18  10  73 W25G35    29.80F WCI  -1
LARAMIE        FAIR      16   5  62 W35       29.70F WCI  -5
CHEYENNE       FAIR      24   4  42 W31G48    29.72S WCI   7
TORRINGTON     FAIR      31  10  41 W25G36    29.74F WCI  17
PINE BLUFFS    FAIR      28  10  47 MISG      29.75R

$$




USA.gov is the U.S. government's official web portal to all federal, state and local government web resources and services.